NOAA 16 DEB, 41510

Orbit data source: Space-Track

NOAA 16 DEB, 41510 is space debris in SSO originally from a launch on Thu, 21 Sep 2000 UTC launched from the Air Force Western Test Range (AFWTR). Debris objects in space refer to the collection of defunct objects orbiting the Earth. Examples of debris include non-operational satellites, rocket bodies, and fragments generated from explosions, collisions, or faulty payload assembly.

Loading next visibility...
Identifier
41510, 2000-055MJ
Orbit
SSO
Country
Flag of USUS
Related business
Manufacturer
Unknown
Mission
Spacecraft
Bus & Motor
Unknown
Mass
Unknown
Launch date (UTC)
2000-09-21 (25 years ago)
Launch vehicle
Unknown
Launch site
Air Force Western Test Range (AFWTR)
Object type
Payload
Rocket body
Debris
Shape & HBR
Unknown
Radar Cross Section
Small (<0.1 m²)

Expand to show TLE details & history
Last TLE update: 3 days ago

TLE from 3 days ago
0 NOAA 16 DEB
1 41510U 00055MJ  25256.20672238  .00002503  00000-0  10418-2 0  9997
2 41510  98.7618 343.8446 0025398 102.8813 257.5207 14.27081669489849
Epoch: 2025-09-13T04:57Z
TLE epoch observation values (Epoch: 2025-09-13T04:57:40.813Z)
Latitude
0.00001°
Longitude
-83.01886°
Altitude
808.41 km
Speed
7.447 km/s
True Right ascension
22h 55m 22s
True Declination
0° 00' 00"
Sunlit
Object was in full shadow at epoch
Visualization orbit readout
Latitude
Unknown
Longitude
Unknown
Altitude
Unknown
Speed
Unknown
Apparent Right ascension
Unknown
Apparent Declination
Unknown
Sunlit
N/A
Visualization observer readout
Local Sidereal Time
17:21:10
Azimuth
Unknown
Elevation
Unknown
Doppler factor
Unknown
Orbital elements
Apogee altitude
816.881 km
Perigee altitude
780.426 km
Semi-major axis
7,176.791 km
Eccentricity
0.00254
Inclination
98.7618°
RAAN
343.8446°
Arg. of periapsis
102.8813°
True anomaly
257.23673°
Mean anomaly
257.5207°
Eccentric anomaly
257.3787°
Mean motion
3.56983 °/min
Orbital period
100.85 mins
BSTAR
0.0010418
Loading maneuver chart data...
Computing Atmospheric mass density...
Loading historical data...
Loading historical data...
Loading historical data...
Loading historical data...
Loading historical data...
Loading historical data...
Loading historical data...

Documentation

Showing up to 5 results
|